Regional Weather Roundup
Issued by NWS

Home | Current Version | Previous Version | Text Only | Print | Product List | Glossary On
Versions: 1 2 3 4 5 6 7 8 9 10 11 12 13 14 15 16 17 18 19 20 21 22 23 24 25 26 27
000
ASUS45 KBOI 011910
RWRID

IDAHO REGIONAL WEATHER ROUNDUP
NATIONAL WEATHER SERVICE BOISE ID
100 PM MDT SAT OCT 01 2016

NOTE: "FAIR" INDICATES FEW OR NO CLOUDS BELOW 12000 FEET
WITH NO SIGNIFICANT WEATHER AND/OR OBSTRUCTIONS TO VISIBILITY

IDZ012-014-012000-
SOUTHWEST IDAHO


CITY           SKY/WX    TMP DP  RH WIND       PRES   REMARKS
BOISE          SUNNY     69  30  23 NW9G18    30.01S
CALDWELL       SUNNY     70  29  21 W17       30.01S
MOUNTAIN HOME  SUNNY     71  32  23 NW16      29.99S
$$

IDZ016-017-012000-
SOUTHCENTRAL IDAHO


CITY           SKY/WX    TMP DP  RH WIND       PRES   REMARKS
BURLEY         PTSUNNY   68  45  43 W9G18     30.01R
JEROME         PTSUNNY   69  44  40 W12       30.02F
TWIN FALLS     PTSUNNY   67  35  30 W13       30.03S
$$

IDZ019>023-012000-
SOUTHEAST IDAHO


CITY           SKY/WX    TMP DP  RH WIND       PRES   REMARKS
IDAHO FALLS    CLOUDY    72  46  39 S14       30.02F
POCATELLO      CLOUDY    75  47  36 S16G22    30.01F
REXBURG        CLOUDY    68  47  46 S9        30.03F
$$

IDZ006-010-011-018-031-032-012000-
CENTRAL IDAHO MOUNTAINS


CITY           SKY/WX    TMP DP  RH WIND       PRES   REMARKS
MCCALL         MOSUNNY   61  29  29 SW20G32   30.01S
HAILEY         LGT RAIN  61  45  55 SE9G21    30.09R
STANLEY          N/A     56  36  47 W15G22    30.07S
SALMON         MOSUNNY   61  52  72 N6        29.95F
CHALLIS        MOSUNNY   60  48  64 NE5       30.00F
$$

IDZ002-004-006-007-026-012000-
NORTHERN IDAHO


CITY           SKY/WX    TMP DP  RH WIND       PRES   REMARKS
LEWISTON       SUNNY     65  37  35 NE8       29.98F
LOWELL           N/A     63  44  50 VRB5      29.97F
COEUR D`ALENE  PTSUNNY   52  46  80 SE7       30.01
MULLAN PASS    FOG       36  35  96 NW7       30.00R VSB<1/4 WCI  30
$$




USA.gov is the U.S. government's official web portal to all federal, state and local government web resources and services.